User: anonymous   Login
Location: Barcelona
(41.3830°N, 2.1830°E)
Time: 05:23:45
(UTC+01:00)
Language:

AIST 2D - Orbit

View from above orbital plane
View from above orbital plane
View from above satellite
View from above satellite

Ground track
Ground track

The orbit data is extracted from the following two-line orbital elements,

1 41465U 16026B   19079.73560242  .00001825  00000-0  58580-4 0  9996
2 41465  97.1995 337.4546 0013115  84.9707 359.9670 15.33504612161715
Epoch (UTC): 20 March 2019 17:39:16
Eccentricity: 0.0013115
inclination: 97.1995°
perigee height: 456 km
apogee height: 474 km
right ascension of ascending node: 337.4546°
argument of perigee: 84.9707°
revolutions per day: 15.33504612
mean anomaly at epoch: 359.9670°
orbit number at epoch: 16171

The dashed part of the orbit path shows where the satellite is in the earth's shadow,  

DLR